| time (UTC) | temp F | wind direction | speed MPH | gust MPH | rain 1hr in | rain 24hr in | rain mn in | humidity % | barometer mb |
| 20260503022818 | 52 | 221 | 0.0 | 2.0 | 0.00 | 0.00 | 0.00 | 77 | 1017.3 |
| 20260503022318 | 52 | 221 | 0.0 | 0.0 | 0.00 | 0.00 | 0.00 | 76 | 1017.3 |
| 20260503021818 | 53 | 220 | 0.0 | 0.0 | 0.00 | 0.00 | 0.00 | 75 | 1017.3 |
| 20260503021318 | 53 | 220 | 1.0 | 1.0 | 0.00 | 0.00 | 0.00 | 74 | 1017.3 |
| 20260503020818 | 53 | 220 | 2.0 | 3.0 | 0.00 | 0.00 | 0.00 | 73 | 1017.4 |
| 20260503020318 | 53 | 286 | 3.0 | 3.0 | 0.00 | 0.00 | 0.00 | 73 | 1017.4 |
| 20260503015818 | 52 | 286 | 3.0 | 4.0 | 0.00 | 0.00 | 0.00 | 75 | 1017.4 |
| 20260503015318 | 52 | 275 | 3.0 | 4.0 | 0.00 | 0.00 | 0.00 | 78 | 1017.5 |
| 20260503014818 | 51 | 281 | 3.0 | 4.0 | 0.00 | 0.00 | 0.00 | 80 | 1017.5 |
| 20260503014318 | 51 | 274 | 4.0 | 4.0 | 0.00 | 0.00 | 0.00 | 80 | 1017.4 |
| 20260503013818 | 51 | 266 | 5.0 | 7.0 | 0.00 | 0.00 | 0.00 | 79 | 1017.5 |
| 20260503013318 | 52 | 268 | 5.0 | 8.0 | 0.00 | 0.00 | 0.00 | 78 | 1017.5 |
| 20260503012818 | 52 | 276 | 4.0 | 7.0 | 0.00 | 0.00 | 0.00 | 76 | 1017.5 |
| 20260503012318 | 51 | 292 | 3.0 | 4.0 | 0.00 | 0.00 | 0.00 | 77 | 1017.6 |
| 20260503011818 | 51 | 308 | 3.0 | 4.0 | 0.00 | 0.00 | 0.00 | 78 | 1017.6 |
| 20260503011318 | 51 | 297 | 3.0 | 4.0 | 0.00 | 0.00 | 0.00 | 78 | 1017.6 |
| 20260503010818 | 51 | 286 | 3.0 | 6.0 | 0.00 | 0.00 | 0.00 | 78 | 1017.6 |
| 20260503010318 | 51 | 290 | 3.0 | 5.0 | 0.00 | 0.00 | 0.00 | 78 | 1017.7 |
| 20260503005818 | 51 | 297 | 3.0 | 3.0 | 0.00 | 0.00 | 0.00 | 79 | 1017.7 |
| 20260503005318 | 51 | 297 | 3.0 | 4.0 | 0.00 | 0.00 | 0.00 | 79 | 1017.7 |
| 20260503004818 | 51 | 288 | 1.0 | 4.0 | 0.00 | 0.00 | 0.00 | 79 | 1017.7 |
| 20260503004318 | 51 | 284 | 0.0 | 0.0 | 0.00 | 0.00 | 0.00 | 79 | 1017.8 |
| 20260503003818 | 52 | 284 | 0.0 | 0.0 | 0.00 | 0.00 | 0.00 | 78 | 1017.7 |
| 20260503003318 | 52 | 323 | 1.0 | 1.0 | 0.00 | 0.00 | 0.00 | 77 | 1017.8 |
| 20260503002818 | 52 | 323 | 2.0 | 2.0 | 0.00 | 0.00 | 0.00 | 77 | 1017.8 |
| 20260503002318 | 52 | 323 | 2.0 | 4.0 | 0.00 | 0.00 | 0.00 | 78 | 1017.8 |
| 20260503001818 | 52 | 319 | 3.0 | 4.0 | 0.00 | 0.00 | 0.00 | 79 | 1017.7 |
| 20260503001318 | 52 | 319 | 3.0 | 5.0 | 0.00 | 0.00 | 0.00 | 79 | 1017.9 |
| 20260503000818 | 52 | 301 | 3.0 | 5.0 | 0.00 | 0.00 | 0.00 | 79 | 1017.9 |
| 20260503000319 | 52 | 307 | 2.0 | 4.0 | 0.00 | 0.00 | 0.00 | 78 | 1018.0 |
| 20260502235818 | 52 | 29 | 2.0 | 2.0 | 0.00 | 0.00 | 0.00 | 78 | 1018.1 |
| 20260502235318 | 53 | 29 | 2.0 | 2.0 | 0.00 | 0.00 | 0.00 | 77 | 1018.2 |
| 20260502234818 | 53 | 29 | 1.0 | 3.0 | 0.00 | 0.00 | 0.00 | 77 | 1018.2 |
| 20260502234318 | 53 | 63 | 1.0 | 3.0 | 0.00 | 0.00 | 0.00 | 77 | 1018.3 |
| 20260502233818 | 53 | 65 | 2.0 | 3.0 | 0.00 | 0.00 | 0.00 | 77 | 1018.3 |
| 20260502233318 | 53 | 96 | 1.0 | 2.0 | 0.00 | 0.00 | 0.00 | 78 | 1018.4 |
| 20260502232818 | 53 | 96 | 2.0 | 4.0 | 0.00 | 0.00 | 0.00 | 78 | 1018.4 |
| 20260502232318 | 53 | 165 | 1.0 | 4.0 | 0.00 | 0.00 | 0.00 | 78 | 1018.4 |
| 20260502231818 | 53 | 172 | 1.0 | 3.0 | 0.00 | 0.00 | 0.00 | 77 | 1018.4 |
| 20260502231318 | 53 | 175 | 1.0 | 2.0 | 0.00 | 0.00 | 0.00 | 77 | 1018.5 |
| 20260502230818 | 53 | 175 | 1.0 | 3.0 | 0.00 | 0.00 | 0.00 | 76 | 1018.6 |
| 20260502230318 | 54 | 175 | 0.0 | 3.0 | 0.00 | 0.00 | 0.00 | 76 | 1018.6 |
| 20260502225818 | 54 | 175 | 0.0 | 0.0 | 0.00 | 0.00 | 0.00 | 75 | 1018.5 |
| 20260502225318 | 54 | 175 | 1.0 | 2.0 | 0.00 | 0.00 | 0.00 | 75 | 1018.5 |
| 20260502224818 | 54 | 175 | 1.0 | 2.0 | 0.00 | 0.00 | 0.00 | 75 | 1018.6 |
| 20260502224318 | 54 | 175 | 1.0 | 3.0 | 0.00 | 0.00 | 0.00 | 75 | 1018.7 |
| 20260502223818 | 53 | 155 | 2.0 | 3.0 | 0.00 | 0.00 | 0.00 | 74 | 1018.8 |
| 20260502223318 | 54 | 154 | 2.0 | 3.0 | 0.00 | 0.00 | 0.00 | 73 | 1018.8 |
| 20260502222818 | 54 | 153 | 2.0 | 3.0 | 0.00 | 0.00 | 0.00 | 72 | 1018.8 |
| 20260502222318 | 54 | 65 | 3.0 | 5.0 | 0.00 | 0.00 | 0.00 | 71 | 1018.9 |
| 20260502221818 | 55 | 63 | 3.0 | 4.0 | 0.00 | 0.00 | 0.00 | 71 | 1019.0 |
| 20260502221318 | 55 | 61 | 3.0 | 4.0 | 0.00 | 0.00 | 0.00 | 71 | 1019.0 |
| 20260502220818 | 55 | 46 | 1.0 | 3.0 | 0.00 | 0.00 | 0.00 | 70 | 1018.9 |
| 20260502220318 | 55 | 45 | 0.0 | 3.0 | 0.00 | 0.00 | 0.00 | 70 | 1018.9 |
| 20260502215818 | 55 | 46 | 0.0 | 1.0 | 0.00 | 0.00 | 0.00 | 70 | 1018.9 |
| 20260502215318 | 55 | 45 | 0.0 | 0.0 | 0.00 | 0.00 | 0.00 | 70 | 1018.9 |
| 20260502214818 | 55 | 45 | 0.0 | 0.0 | 0.00 | 0.00 | 0.00 | 70 | 1018.9 |
| 20260502214318 | 55 | 45 | 0.0 | 2.0 | 0.00 | 0.00 | 0.00 | 70 | 1018.9 |
| 20260502213818 | 55 | 46 | 0.0 | 0.0 | 0.00 | 0.00 | 0.00 | 70 | 1019.1 |
| 20260502213318 | 55 | 46 | 1.0 | 0.0 | 0.00 | 0.00 | 0.00 | 70 | 1018.9 |
| 20260502212818 | 55 | 44 | 1.0 | 2.0 | 0.00 | 0.00 | 0.00 | 71 | 1019.0 |
| 20260502212318 | 55 | 44 | 1.0 | 2.0 | 0.00 | 0.00 | 0.00 | 70 | 1019.1 |
| 20260502211818 | 55 | 45 | 2.0 | 3.0 | 0.00 | 0.00 | 0.00 | 70 | 1019.1 |
| 20260502211318 | 55 | 45 | 1.0 | 3.0 | 0.00 | 0.00 | 0.00 | 70 | 1019.2 |
| 20260502210818 | 55 | 44 | 0.0 | 0.0 | 0.00 | 0.00 | 0.00 | 69 | 1019.2 |
| 20260502210318 | 55 | 44 | 1.0 | 2.0 | 0.00 | 0.00 | 0.00 | 69 | 1019.2 |
| 20260502205818 | 55 | 44 | 2.0 | 3.0 | 0.00 | 0.00 | 0.00 | 69 | 1019.1 |
| 20260502205318 | 56 | 44 | 2.0 | 3.0 | 0.00 | 0.00 | 0.00 | 69 | 1019.3 |
| 20260502204818 | 56 | 44 | 3.0 | 4.0 | 0.00 | 0.00 | 0.00 | 68 | 1019.3 |
| 20260502204318 | 56 | 127 | 2.0 | 3.0 | 0.00 | 0.00 | 0.00 | 67 | 1019.3 |
| 20260502203819 | 56 | 127 | 2.0 | 3.0 | 0.00 | 0.00 | 0.00 | 67 | 1019.3 |
| 20260502203319 | 57 | 127 | 2.0 | 3.0 | 0.00 | 0.00 | 0.00 | 66 | 1019.2 |
| 20260502202819 | 57 | 127 | 2.0 | 3.0 | 0.00 | 0.00 | 0.00 | 66 | 1019.3 |
| 20260502202319 | 57 | 127 | 4.0 | 4.0 | 0.00 | 0.00 | 0.00 | 65 | 1019.3 |
| 20260502201819 | 57 | 129 | 4.0 | 7.0 | 0.00 | 0.00 | 0.00 | 65 | 1019.2 |
| 20260502201319 | 57 | 134 | 3.0 | 5.0 | 0.00 | 0.00 | 0.00 | 65 | 1019.2 |
| 20260502200819 | 57 | 136 | 3.0 | 4.0 | 0.00 | 0.00 | 0.00 | 65 | 1019.3 |
| 20260502200319 | 57 | 131 | 4.0 | 5.0 | 0.00 | 0.00 | 0.00 | 65 | 1019.3 |
| 20260502195819 | 57 | 128 | 4.0 | 7.0 | 0.00 | 0.00 | 0.00 | 65 | 1019.3 |
| 20260502195319 | 58 | 134 | 3.0 | 5.0 | 0.00 | 0.00 | 0.00 | 65 | 1019.4 |
| 20260502194819 | 58 | 138 | 3.0 | 4.0 | 0.00 | 0.00 | 0.00 | 65 | 1019.4 |
| 20260502194319 | 58 | 138 | 4.0 | 5.0 | 0.00 | 0.00 | 0.00 | 64 | 1019.3 |
| 20260502193819 | 58 | 136 | 4.0 | 7.0 | 0.00 | 0.00 | 0.00 | 63 | 1019.3 |
| 20260502193319 | 59 | 131 | 3.0 | 4.0 | 0.00 | 0.00 | 0.00 | 62 | 1019.3 |
| 20260502192819 | 59 | 144 | 2.0 | 5.0 | 0.00 | 0.00 | 0.00 | 61 | 1019.4 |
| 20260502192319 | 60 | 109 | 2.0 | 2.0 | 0.00 | 0.00 | 0.00 | 60 | 1019.4 |
| 20260502191819 | 60 | 108 | 3.0 | 6.0 | 0.00 | 0.00 | 0.00 | 59 | 1019.4 |
| 20260502191319 | 60 | 115 | 3.0 | 7.0 | 0.00 | 0.00 | 0.00 | 59 | 1019.5 |
| 20260502190819 | 60 | 127 | 2.0 | 4.0 | 0.00 | 0.00 | 0.00 | 59 | 1019.5 |
| 20260502190319 | 60 | 136 | 3.0 | 4.0 | 0.00 | 0.00 | 0.00 | 59 | 1019.4 |
| 20260502185819 | 60 | 136 | 4.0 | 5.0 | 0.00 | 0.00 | 0.00 | 59 | 1019.4 |
| 20260502185319 | 60 | 130 | 2.0 | 5.0 | 0.00 | 0.00 | 0.00 | 61 | 1019.4 |
| 20260502184819 | 60 | 258 | 1.0 | 2.0 | 0.00 | 0.00 | 0.00 | 62 | 1019.4 |
| 20260502184319 | 60 | 276 | 1.0 | 3.0 | 0.00 | 0.00 | 0.00 | 63 | 1019.4 |
| 20260502183819 | 59 | 186 | 0.0 | 1.0 | 0.00 | 0.00 | 0.00 | 63 | 1019.3 |
| 20260502183319 | 59 | 186 | 1.0 | 2.0 | 0.00 | 0.00 | 0.00 | 63 | 1019.2 |
| 20260502182819 | 59 | 186 | 1.0 | 2.0 | 0.00 | 0.00 | 0.00 | 63 | 1019.1 |
| 20260502182319 | 59 | 186 | 1.0 | 1.0 | 0.00 | 0.00 | 0.00 | 63 | 1019.0 |
| 20260502181819 | 60 | 186 | 2.0 | 4.0 | 0.00 | 0.00 | 0.00 | 64 | 1019.0 |
| 20260502181319 | 60 | 194 | 2.0 | 4.0 | 0.00 | 0.00 | 0.00 | 64 | 1019.0 |
| 20260502180819 | 60 | 222 | 3.0 | 5.0 | 0.00 | 0.00 | 0.00 | 64 | 1018.9 |
| 20260502180319 | 60 | 263 | 5.0 | 8.0 | 0.00 | 0.00 | 0.00 | 63 | 1018.8 |
| 20260502170319 | 62 | 313 | 9.0 | 11.0 | 0.00 | 0.00 | 0.00 | 54 | 1018.7 |
| 20260502164319 | 63 | 302 | 8.0 | 9.0 | 0.00 | 0.00 | 0.00 | 51 | 1018.7 |
| 20260502163819 | 62 | 299 | 9.0 | 14.0 | 0.00 | 0.00 | 0.00 | 51 | 1018.7 |
| 20260502163319 | 62 | 312 | 10.0 | 13.0 | 0.00 | 0.00 | 0.00 | 51 | 1018.8 |
| 20260502162819 | 63 | 308 | 11.0 | 15.0 | 0.00 | 0.00 | 0.00 | 50 | 1018.7 |
| 20260502162319 | 63 | 313 | 11.0 | 15.0 | 0.00 | 0.00 | 0.00 | 51 | 1018.7 |
| 20260502161819 | 63 | 306 | 11.0 | 17.0 | 0.00 | 0.00 | 0.00 | 50 | 1018.7 |
| 20260502161319 | 63 | 313 | 11.0 | 15.0 | 0.00 | 0.00 | 0.00 | 51 | 1018.7 |
| 20260502160819 | 63 | 323 | 11.0 | 15.0 | 0.00 | 0.00 | 0.00 | 51 | 1018.7 |
| 20260502160319 | 63 | 311 | 12.0 | 16.0 | 0.00 | 0.00 | 0.00 | 50 | 1018.7 |
| 20260502152319 | 64 | 298 | 13.0 | 17.0 | 0.00 | 0.00 | 0.00 | 49 | 1018.8 |
| 20260502151819 | 64 | 297 | 13.0 | 19.0 | 0.00 | 0.00 | 0.00 | 47 | 1018.8 |
| 20260502151319 | 65 | 327 | 10.0 | 15.0 | 0.00 | 0.00 | 0.00 | 47 | 1018.6 |
| 20260502150819 | 65 | 319 | 10.0 | 14.0 | 0.00 | 0.00 | 0.00 | 46 | 1018.7 |
| 20260502150319 | 66 | 327 | 10.0 | 16.0 | 0.00 | 0.00 | 0.00 | 45 | 1018.8 |
| 20260502130319 | 67 | 52 | 7.0 | 12.0 | 0.00 | 0.00 | 0.00 | 34 | 1019.2 |
| 20260502123319 | 67 | 77 | 10.0 | 15.0 | 0.00 | 0.00 | 0.00 | 37 | 1019.5 |
| 20260502122819 | 67 | 65 | 9.0 | 15.0 | 0.00 | 0.00 | 0.00 | 34 | 1019.5 |
| 20260502122319 | 67 | 57 | 9.0 | 13.0 | 0.00 | 0.00 | 0.00 | 35 | 1019.5 |
| 20260502121819 | 67 | 59 | 9.0 | 14.0 | 0.00 | 0.00 | 0.00 | 35 | 1019.6 |
| 20260502121319 | 66 | 74 | 7.0 | 16.0 | 0.00 | 0.00 | 0.00 | 36 | 1019.7 |
| 20260502120819 | 67 | 65 | 6.0 | 13.0 | 0.00 | 0.00 | 0.00 | 40 | 1019.7 |
| 20260502120319 | 67 | 85 | 6.0 | 13.0 | 0.00 | 0.00 | 0.00 | 34 | 1019.7 |
| 20260502115820 | 67 | 51 | 6.0 | 12.0 | 0.00 | 0.00 | 0.00 | 38 | 1019.8 |
| 20260502115320 | 66 | 355 | 7.0 | 12.0 | 0.00 | 0.00 | 0.00 | 36 | 1019.8 |
| 20260502114820 | 66 | 19 | 6.0 | 14.0 | 0.00 | 0.00 | 0.00 | 40 | 1019.7 |
| 20260502114320 | 66 | 5 | 4.0 | 11.0 | 0.00 | 0.00 | 0.00 | 37 | 1019.8 |
| 20260502113820 | 65 | 287 | 5.0 | 8.0 | 0.00 | 0.00 | 0.00 | 37 | 1019.8 |
| 20260502113320 | 66 | 342 | 6.0 | 11.0 | 0.00 | 0.00 | 0.00 | 36 | 1020.0 |
| 20260502112820 | 66 | 345 | 7.0 | 12.0 | 0.00 | 0.00 | 0.00 | 37 | 1020.0 |
| 20260502112320 | 66 | 73 | 9.0 | 17.0 | 0.00 | 0.00 | 0.00 | 38 | 1020.1 |
| 20260502111820 | 66 | 63 | 10.0 | 14.0 | 0.00 | 0.00 | 0.00 | 35 | 1020.1 |
| 20260502111320 | 66 | 32 | 11.0 | 21.0 | 0.00 | 0.00 | 0.00 | 39 | 1020.2 |
| 20260502110820 | 65 | 57 | 11.0 | 21.0 | 0.00 | 0.00 | 0.00 | 35 | 1020.1 |
| 20260502110320 | 66 | 86 | 10.0 | 20.0 | 0.00 | 0.00 | 0.00 | 33 | 1020.3 |
| 20260502105820 | 66 | 13 | 11.0 | 17.0 | 0.00 | 0.00 | 0.00 | 35 | 1020.3 |
| 20260502105320 | 66 | 91 | 12.0 | 20.0 | 0.00 | 0.00 | 0.00 | 33 | 1020.3 |
| 20260502104820 | 66 | 90 | 14.0 | 17.0 | 0.00 | 0.00 | 0.00 | 36 | 1020.5 |
| 20260502104320 | 65 | 55 | 15.0 | 22.0 | 0.00 | 0.00 | 0.00 | 34 | 1020.4 |
| 20260502103820 | 65 | 80 | 12.0 | 21.0 | 0.00 | 0.00 | 0.00 | 34 | 1020.5 |
| 20260502103320 | 66 | 50 | 13.0 | 17.0 | 0.00 | 0.00 | 0.00 | 36 | 1020.5 |
| 20260502102820 | 65 | 82 | 13.0 | 20.0 | 0.00 | 0.00 | 0.00 | 36 | 1020.6 |
| 20260502102320 | 65 | 68 | 13.0 | 18.0 | 0.00 | 0.00 | 0.00 | 34 | 1020.5 |
| 20260502101820 | 64 | 89 | 15.0 | 24.0 | 0.00 | 0.00 | 0.00 | 32 | 1020.6 |
| 20260502101320 | 64 | 93 | 17.0 | 24.0 | 0.00 | 0.00 | 0.00 | 34 | 1020.6 |
| 20260502100820 | 64 | 95 | 16.0 | 25.0 | 0.00 | 0.00 | 0.00 | 33 | 1020.6 |
| 20260502100320 | 64 | 71 | 16.0 | 21.0 | 0.00 | 0.00 | 0.00 | 35 | 1020.7 |
| 20260502091320 | 63 | 66 | 12.0 | 22.0 | 0.00 | 0.00 | 0.00 | 38 | 1021.1 |
| 20260502090820 | 62 | 42 | 12.0 | 22.0 | 0.00 | 0.00 | 0.00 | 43 | 1021.1 |
| 20260502090320 | 62 | 90 | 14.0 | 22.0 | 0.00 | 0.00 | 0.00 | 39 | 1021.1 |
| 20260502071320 | 58 | 70 | 17.0 | 24.0 | 0.00 | 0.00 | 0.00 | 46 | 1021.8 |
| 20260502070820 | 58 | 64 | 17.0 | 24.0 | 0.00 | 0.00 | 0.00 | 45 | 1021.7 |
| 20260502070320 | 58 | 63 | 15.0 | 24.0 | 0.00 | 0.00 | 0.00 | 46 | 1021.6 |
| 20260502065820 | 58 | 104 | 14.0 | 24.0 | 0.00 | 0.00 | 0.00 | 46 | 1021.8 |
| 20260502065320 | 58 | 94 | 12.0 | 21.0 | 0.00 | 0.00 | 0.00 | 45 | 1021.8 |
| 20260502064820 | 58 | 83 | 11.0 | 16.0 | 0.00 | 0.00 | 0.00 | 47 | 1021.8 |
| 20260502064320 | 58 | 92 | 8.0 | 22.0 | 0.00 | 0.00 | 0.00 | 48 | 1021.9 |
| 20260502063820 | 58 | 81 | 6.0 | 13.0 | 0.00 | 0.00 | 0.00 | 47 | 1022.0 |
| 20260502063320 | 57 | 92 | 7.0 | 11.0 | 0.00 | 0.00 | 0.00 | 47 | 1022.1 |
| 20260502062820 | 57 | 69 | 6.0 | 12.0 | 0.00 | 0.00 | 0.00 | 47 | 1022.1 |
| 20260502062320 | 57 | 80 | 7.0 | 8.0 | 0.00 | 0.00 | 0.00 | 49 | 1022.0 |
| 20260502061820 | 57 | 94 | 12.0 | 14.0 | 0.00 | 0.00 | 0.00 | 48 | 1022.0 |
| 20260502061320 | 57 | 96 | 12.0 | 18.0 | 0.00 | 0.00 | 0.00 | 47 | 1022.0 |
| 20260502060820 | 57 | 108 | 10.0 | 18.0 | 0.00 | 0.00 | 0.00 | 47 | 1022.0 |
| 20260502060320 | 57 | 93 | 10.0 | 14.0 | 0.00 | 0.00 | 0.00 | 49 | 1021.9 |
| 20260502055820 | 56 | 95 | 10.0 | 16.0 | 0.00 | 0.00 | 0.00 | 48 | 1021.9 |
| 20260502055320 | 56 | 93 | 9.0 | 14.0 | 0.00 | 0.00 | 0.00 | 48 | 1021.9 |
| 20260502054820 | 56 | 92 | 9.0 | 13.0 | 0.00 | 0.00 | 0.00 | 48 | 1022.0 |
| 20260502054320 | 56 | 106 | 9.0 | 11.0 | 0.00 | 0.00 | 0.00 | 48 | 1022.0 |
| 20260502053820 | 56 | 135 | 9.0 | 16.0 | 0.00 | 0.00 | 0.00 | 47 | 1022.0 |
| 20260502053320 | 56 | 117 | 8.0 | 12.0 | 0.00 | 0.00 | 0.00 | 48 | 1022.1 |
| 20260502052820 | 56 | 117 | 7.0 | 11.0 | 0.00 | 0.00 | 0.00 | 49 | 1022.0 |
| 20260502052320 | 56 | 104 | 9.0 | 12.0 | 0.00 | 0.00 | 0.00 | 48 | 1022.0 |
| 20260502051820 | 56 | 105 | 9.0 | 14.0 | 0.00 | 0.00 | 0.00 | 47 | 1022.0 |
| 20260502051320 | 56 | 110 | 8.0 | 12.0 | 0.00 | 0.00 | 0.00 | 48 | 1021.9 |
| 20260502050820 | 56 | 96 | 9.0 | 13.0 | 0.00 | 0.00 | 0.00 | 49 | 1022.0 |
| 20260502045820 | 55 | 94 | 10.0 | 15.0 | 0.00 | 0.00 | 0.00 | 48 | 1021.9 |
| 20260502045320 | 55 | 98 | 8.0 | 16.0 | 0.00 | 0.00 | 0.00 | 48 | 1022.0 |
| 20260502044820 | 55 | 88 | 5.0 | 15.0 | 0.00 | 0.00 | 0.00 | 49 | 1021.9 |
| 20260502044320 | 55 | 81 | 6.0 | 7.0 | 0.00 | 0.00 | 0.00 | 49 | 1021.8 |
| 20260502043820 | 55 | 83 | 8.0 | 9.0 | 0.00 | 0.00 | 0.00 | 49 | 1021.8 |
| 20260502043320 | 55 | 91 | 8.0 | 13.0 | 0.00 | 0.00 | 0.00 | 48 | 1021.8 |
| 20260502042820 | 54 | 78 | 7.0 | 10.0 | 0.00 | 0.00 | 0.00 | 49 | 1021.7 |
| 20260502042320 | 54 | 92 | 7.0 | 10.0 | 0.00 | 0.00 | 0.00 | 48 | 1021.6 |
| 20260502041820 | 54 | 86 | 7.0 | 8.0 | 0.00 | 0.00 | 0.00 | 48 | 1021.6 |
| 20260502041320 | 53 | 98 | 7.0 | 9.0 | 0.00 | 0.00 | 0.00 | 49 | 1021.5 |
| 20260502040820 | 53 | 92 | 8.0 | 10.0 | 0.00 | 0.00 | 0.00 | 49 | 1021.4 |
| 20260502040320 | 53 | 98 | 8.0 | 10.0 | 0.00 | 0.00 | 0.00 | 50 | 1021.4 |
| 20260502035820 | 53 | 90 | 8.0 | 10.0 | 0.00 | 0.00 | 0.00 | 50 | 1021.4 |
| 20260502035320 | 53 | 75 | 8.0 | 11.0 | 0.00 | 0.00 | 0.00 | 50 | 1021.3 |
| 20260502034820 | 53 | 85 | 8.0 | 11.0 | 0.00 | 0.00 | 0.00 | 50 | 1021.4 |
| 20260502034320 | 53 | 92 | 9.0 | 11.0 | 0.00 | 0.00 | 0.00 | 50 | 1021.4 |
| 20260502033820 | 54 | 84 | 9.0 | 12.0 | 0.00 | 0.00 | 0.00 | 49 | 1021.3 |
| 20260502033320 | 54 | 90 | 9.0 | 13.0 | 0.00 | 0.00 | 0.00 | 49 | 1021.3 |
| 20260502032820 | 54 | 86 | 9.0 | 11.0 | 0.00 | 0.00 | 0.00 | 50 | 1021.3 |
| 20260502032320 | 54 | 88 | 11.0 | 12.0 | 0.00 | 0.00 | 0.00 | 50 | 1021.3 |
| 20260502031820 | 54 | 84 | 12.0 | 15.0 | 0.00 | 0.00 | 0.00 | 49 | 1021.2 |
| 20260502031320 | 54 | 94 | 11.0 | 18.0 | 0.00 | 0.00 | 0.00 | 50 | 1021.3 |
| 20260502030820 | 54 | 85 | 11.0 | 16.0 | 0.00 | 0.00 | 0.00 | 50 | 1021.2 |
| 20260502030320 | 54 | 96 | 11.0 | 16.0 | 0.00 | 0.00 | 0.00 | 50 | 1021.3 |
| 20260502025820 | 54 | 91 | 12.0 | 13.0 | 0.00 | 0.00 | 0.00 | 50 | 1021.2 |
| 20260502025320 | 55 | 100 | 12.0 | 15.0 | 0.00 | 0.00 | 0.00 | 49 | 1021.2 |
| 20260502024821 | 54 | 98 | 11.0 | 14.0 | 0.00 | 0.00 | 0.00 | 49 | 1021.1 |
| 20260502024321 | 54 | 86 | 11.0 | 15.0 | 0.00 | 0.00 | 0.00 | 50 | 1021.1 |
| 20260502023821 | 54 | 84 | 10.0 | 15.0 | 0.00 | 0.00 | 0.00 | 50 | 1021.1 |
| 20260502023321 | 54 | 84 | 10.0 | 13.0 | 0.00 | 0.00 | 0.00 | 50 | 1021.2 |